NOAA 16 DEB, 41248

Orbit data source: Space-Track

NOAA 16 DEB, 41248 is space debris in SSO originally from a launch on Thu, 21 Sep 2000 UTC launched from the Air Force Western Test Range (AFWTR). Debris objects in space refer to the collection of defunct objects orbiting the Earth. Examples of debris include non-operational satellites, rocket bodies, and fragments generated from explosions, collisions, or faulty payload assembly.

Loading next visibility...
Identifier
41248, 2000-055EY
Orbit
SSO
Country
Flag of USUS
Related business
Manufacturer
Unknown
Mission
Spacecraft
Bus & Motor
Unknown
Mass
Unknown
Launch date (UTC)
2000-09-21 (25 years ago)
Launch vehicle
Unknown
Launch site
Air Force Western Test Range (AFWTR)
Object type
Payload
Rocket body
Debris
Shape & HBR
Unknown shape, 0.1 m
Radar Cross Section
Small (<0.1 m²)

Expand to show TLE details & history
Last TLE update: 19 hours ago

TLE from 19 hours ago
0 NOAA 16 DEB
1 41248U 00055EY  25351.26957883  .00004997  00000-0  24702-2 0  9999
2 41248  98.8604 358.3317 0071316 231.1166 128.3632 14.16471937507824
Epoch: 2025-12-17T06:28Z
TLE epoch observation values (Epoch: 2025-12-17T06:28:11.610Z)
Latitude
-0.00011°
Longitude
175.14148°
Altitude
872.381 km
Speed
7.4 km/s
True Right ascension
23h 53m 19s
True Declination
0° 00' 00"
Sunlit
Object was in daylight at epoch
Visualization orbit readout
Latitude
Unknown
Longitude
Unknown
Altitude
Unknown
Speed
Unknown
Apparent Right ascension
Unknown
Apparent Declination
Unknown
Sunlit
N/A
Visualization observer readout
Local Sidereal Time
23:47:32
Azimuth
Unknown
Elevation
Unknown
Doppler factor
Unknown
Orbital elements
Apogee altitude
885.917 km
Perigee altitude
783.042 km
Semi-major axis
7,212.617 km
Eccentricity
0.00713
Inclination
98.8604°
RAAN
358.3317°
Arg. of periapsis
231.1166°
True anomaly
129.00044°
Mean anomaly
128.3632°
Eccentric anomaly
128.68217°
Mean motion
3.54327 °/min
Orbital period
101.6 mins
BSTAR
0.0024702
Loading maneuver chart data...
Computing Atmospheric mass density...
Loading historical data...
Loading historical data...
Loading historical data...
Loading historical data...
Loading historical data...
Loading historical data...
Loading historical data...

Documentation

Showing up to 5 results
|